Time,TemperatureF,DewpointF,PressureIn,WindDirection,WindDirectionDegrees,WindSpeedMPH,WindSpeedGustMPH,Humidity,HourlyPrecipIn,Conditions,Clouds,dailyrainin,SolarRadiationWatts/m^2,SoftwareType,DateUTC
2013-08-20 00:03:00,61.0,60.0,-100.00,West,276,0.0,0.0,98,0.00,,,0.00,0.000000,,2013-08-20 04:03:00,
2013-08-20 00:43:00,59.0,58.0,-100.00,West,265,0.0,0.0,98,0.00,,,0.00,0.000000,,2013-08-20 04:43:00,
2013-08-20 00:54:00,59.0,58.0,-100.00,West,265,0.0,0.0,98,0.00,,,0.00,0.000000,,2013-08-20 04:54:00,
2013-08-20 01:02:00,59.0,58.0,-100.00,West,265,0.0,0.0,98,0.00,,,0.00,0.000000,,2013-08-20 05:02:00,
2013-08-20 01:43:00,60.0,60.0,-100.00,SSW,203,0.0,0.0,99,0.00,,,0.00,0.000000,,2013-08-20 05:43:00,
2013-08-20 01:52:00,60.0,60.0,-100.00,SSW,203,0.0,0.0,99,0.00,,,0.00,0.000000,,2013-08-20 05:52:00,
2013-08-20 02:02:00,60.0,60.0,-100.00,SSW,203,0.0,0.0,99,0.00,,,0.00,0.000000,,2013-08-20 06:02:00,
2013-08-20 02:42:00,59.0,59.0,-100.00,South,183,0.0,3.0,99,0.00,,,0.00,0.000000,,2013-08-20 06:42:00,
2013-08-20 02:52:00,59.0,59.0,-100.00,South,183,0.0,3.0,99,0.00,,,0.00,0.000000,,2013-08-20 06:52:00,
2013-08-20 03:01:00,59.0,59.0,-100.00,South,183,0.0,3.0,99,0.00,,,0.00,0.000000,,2013-08-20 07:01:00,
2013-08-20 03:42:00,58.0,58.0,-100.00,SSE,150,0.0,0.0,99,0.00,,,0.00,0.000000,,2013-08-20 07:42:00,
2013-08-20 03:52:00,58.0,58.0,-100.00,SSE,150,0.0,0.0,99,0.00,,,0.00,0.000000,,2013-08-20 07:52:00,
2013-08-20 04:02:00,58.0,58.0,-100.00,SSE,150,0.0,0.0,99,0.00,,,0.00,0.000000,,2013-08-20 08:02:00,
2013-08-20 04:42:00,57.0,57.0,-100.00,South,177,0.0,2.0,99,0.00,,,0.00,0.000000,,2013-08-20 08:42:00,
2013-08-20 04:52:00,57.0,57.0,-100.00,South,177,0.0,2.0,99,0.00,,,0.00,0.000000,,2013-08-20 08:52:00,
2013-08-20 05:01:00,57.0,57.0,-100.00,South,177,0.0,2.0,99,0.00,,,0.00,0.000000,,2013-08-20 09:01:00,
2013-08-20 05:42:00,56.0,56.0,-100.00,SSE,168,0.0,2.0,99,0.00,,,0.00,0.000000,,2013-08-20 09:42:00,
2013-08-20 05:53:00,56.0,56.0,-100.00,SSE,168,0.0,2.0,99,0.00,,,0.00,0.000000,,2013-08-20 09:53:00,
2013-08-20 06:04:00,56.0,56.0,-100.00,SSE,168,0.0,2.0,99,0.00,,,0.00,0.000000,,2013-08-20 10:04:00,
2013-08-20 06:43:00,56.0,56.0,-100.00,SSW,202,0.0,2.0,99,0.00,,,0.00,0.000000,,2013-08-20 10:43:00,
2013-08-20 06:52:00,56.0,56.0,-100.00,SSW,202,0.0,2.0,99,0.00,,,0.00,0.000000,,2013-08-20 10:52:00,
2013-08-20 07:02:00,56.0,56.0,-100.00,SSW,202,0.0,2.0,99,0.00,,,0.00,0.000000,,2013-08-20 11:02:00,
2013-08-20 07:42:00,55.0,55.0,-100.00,SSW,205,0.0,0.0,99,0.00,,,0.00,6.000000,,2013-08-20 11:42:00,
2013-08-20 07:52:00,55.0,55.0,-100.00,SSW,205,0.0,0.0,99,0.00,,,0.00,6.000000,,2013-08-20 11:52:00,
2013-08-20 08:01:00,55.0,55.0,-100.00,SSW,205,0.0,0.0,99,0.00,,,0.00,6.000000,,2013-08-20 12:01:00,
2013-08-20 08:42:00,56.0,56.0,-100.00,West,261,0.0,0.0,99,0.00,,,0.00,55.000000,,2013-08-20 12:42:00,
2013-08-20 08:52:00,56.0,56.0,-100.00,West,261,0.0,0.0,99,0.00,,,0.00,55.000000,,2013-08-20 12:52:00,
2013-08-20 09:01:00,56.0,56.0,-100.00,West,261,0.0,0.0,99,0.00,,,0.00,55.000000,,2013-08-20 13:01:00,
2013-08-20 09:42:00,59.0,58.0,-100.00,NNW,343,0.0,0.0,98,0.00,,,0.00,167.000000,,2013-08-20 13:42:00,
2013-08-20 09:52:00,59.0,58.0,-100.00,NNW,343,0.0,0.0,98,0.00,,,0.00,167.000000,,2013-08-20 13:52:00,
2013-08-20 10:02:00,59.0,58.0,-100.00,NNW,343,0.0,0.0,98,0.00,,,0.00,167.000000,,2013-08-20 14:02:00,
2013-08-20 10:42:00,68.0,65.0,-100.00,North,360,0.0,0.0,89,0.00,,,0.00,485.000000,,2013-08-20 14:42:00,
2013-08-20 10:52:00,68.0,65.0,-100.00,North,360,0.0,0.0,89,0.00,,,0.00,485.000000,,2013-08-20 14:52:00,
2013-08-20 11:02:00,68.0,65.0,-100.00,North,360,0.0,0.0,89,0.00,,,0.00,485.000000,,2013-08-20 15:02:00,
2013-08-20 11:43:00,76.0,64.0,-100.00,SSW,196,0.0,0.0,66,0.00,,,0.00,702.000000,,2013-08-20 15:43:00,
2013-08-20 11:54:00,76.0,64.0,-100.00,SSW,196,0.0,0.0,66,0.00,,,0.00,702.000000,,2013-08-20 15:54:00,
2013-08-20 12:04:00,76.0,64.0,-100.00,SSW,196,0.0,0.0,66,0.00,,,0.00,702.000000,,2013-08-20 16:04:00,
2013-08-20 12:30:00,-999.0,-99.9,-100.00,SSW,194,4.0,9.0,58,0.00,,,0.00,856.000000,,2013-08-20 16:30:00,
2013-08-20 12:42:00,79.0,63.0,-100.00,SSW,194,4.0,9.0,58,0.00,,,0.00,856.000000,,2013-08-20 16:42:00,
2013-08-20 12:53:00,79.0,63.0,-100.00,SSW,194,4.0,9.0,58,0.00,,,0.00,856.000000,,2013-08-20 16:53:00,
2013-08-20 13:03:00,79.0,63.0,-100.00,SSW,194,4.0,9.0,58,0.00,,,0.00,856.000000,,2013-08-20 17:03:00,
2013-08-20 13:43:00,81.0,63.0,-100.00,South,173,5.0,11.0,54,0.00,,,0.00,997.000000,,2013-08-20 17:43:00,
2013-08-20 13:52:00,81.0,63.0,-100.00,South,173,5.0,11.0,54,0.00,,,0.00,997.000000,,2013-08-20 17:52:00,
2013-08-20 14:02:00,81.0,63.0,-100.00,South,173,5.0,11.0,54,0.00,,,0.00,997.000000,,2013-08-20 18:02:00,
2013-08-20 14:43:00,81.0,60.0,-100.00,NW,318,3.0,9.0,49,0.00,,,0.00,809.000000,,2013-08-20 18:43:00,
2013-08-20 14:52:00,81.0,60.0,-100.00,NW,318,3.0,9.0,49,0.00,,,0.00,809.000000,,2013-08-20 18:52:00,
2013-08-20 15:01:00,81.0,60.0,-100.00,NW,318,3.0,9.0,49,0.00,,,0.00,809.000000,,2013-08-20 19:01:00,
2013-08-20 15:42:00,82.0,60.0,-100.00,South,177,5.0,9.0,47,0.00,,,0.00,852.000000,,2013-08-20 19:42:00,
2013-08-20 15:53:00,82.0,60.0,-100.00,South,177,5.0,9.0,47,0.00,,,0.00,852.000000,,2013-08-20 19:53:00,
2013-08-20 16:03:00,82.0,60.0,-100.00,South,177,5.0,9.0,47,0.00,,,0.00,852.000000,,2013-08-20 20:03:00,
2013-08-20 16:42:00,83.0,61.0,-100.00,NNW,342,3.0,8.0,47,0.00,,,0.00,715.000000,,2013-08-20 20:42:00,
2013-08-20 16:52:00,83.0,61.0,-100.00,NNW,342,3.0,8.0,47,0.00,,,0.00,715.000000,,2013-08-20 20:52:00,
2013-08-20 17:03:00,83.0,61.0,-100.00,NNW,342,3.0,8.0,47,0.00,,,0.00,715.000000,,2013-08-20 21:03:00,
2013-08-20 18:42:00,80.0,64.0,-100.00,NE,55,1.0,5.0,59,0.00,,,0.00,340.000000,,2013-08-20 22:42:00,
2013-08-20 18:54:00,80.0,64.0,-100.00,NE,55,1.0,5.0,59,0.00,,,0.00,340.000000,,2013-08-20 22:54:00,
2013-08-20 19:03:00,80.0,64.0,-100.00,NE,55,1.0,5.0,59,0.00,,,0.00,340.000000,,2013-08-20 23:03:00,
2013-08-20 19:43:00,76.0,62.0,-100.00,NNW,333,2.0,7.0,61,0.00,,,0.00,247.000000,,2013-08-20 23:43:00,
2013-08-20 19:53:00,76.0,62.0,-100.00,NNW,333,2.0,7.0,61,0.00,,,0.00,247.000000,,2013-08-20 23:53:00,
2013-08-20 20:02:00,76.0,62.0,-100.00,NNW,333,2.0,7.0,61,0.00,,,0.00,247.000000,,2013-08-21 00:02:00,
2013-08-20 20:42:00,68.0,62.0,-100.00,ENE,57,0.0,2.0,80,0.00,,,0.00,38.000000,,2013-08-21 00:42:00,
2013-08-20 20:52:00,68.0,62.0,-100.00,ENE,57,0.0,2.0,80,0.00,,,0.00,38.000000,,2013-08-21 00:52:00,
2013-08-20 21:02:00,68.0,62.0,-100.00,ENE,57,0.0,2.0,80,0.00,,,0.00,38.000000,,2013-08-21 01:02:00,
2013-08-20 21:42:00,64.0,61.0,-100.00,SW,224,0.0,0.0,91,0.00,,,-99.99,1.000000,,2013-08-21 01:42:00,
2013-08-20 21:52:00,64.0,61.0,-100.00,SW,224,0.0,0.0,91,0.00,,,-99.99,1.000000,,2013-08-21 01:52:00,
2013-08-20 22:02:00,64.0,61.0,-100.00,SW,224,0.0,0.0,91,0.00,,,-99.99,1.000000,,2013-08-21 02:02:00,
2013-08-20 22:42:00,61.0,60.0,-100.00,SW,214,0.0,0.0,96,0.00,,,0.00,0.000000,,2013-08-21 02:42:00,
2013-08-20 22:52:00,61.0,60.0,-100.00,SW,214,0.0,0.0,96,0.00,,,0.00,0.000000,,2013-08-21 02:52:00,
2013-08-20 23:02:00,61.0,60.0,-100.00,SW,214,0.0,0.0,96,0.00,,,0.00,0.000000,,2013-08-21 03:02:00,
2013-08-20 23:44:00,60.0,59.0,-100.00,South,174,0.0,0.0,96,0.00,,,0.00,0.000000,,2013-08-21 03:44:00,
2013-08-20 23:55:00,60.0,59.0,-100.00,South,174,0.0,0.0,96,0.00,,,0.00,0.000000,,2013-08-21 03:55:00,